Theta_e
309 309 309 309 309 309 310 310 310 310 306 305 305 305 305 306 305 300 298 300 296 291 293 296 296 292 293 292 288 292 292 295 292 287 288 288 284 286 284 289 288 286 285 284 285 283 281 296 295 287 292 295 294 294
309 308 308 308 309 309 309 309 309 309 307 306 305 305 305 306 306 302 295 303 303 294 293 297 297 298 297 295 292 294 292 294 294 288 290 289 284 286 285 279 293 285 289 286 287 284 295 294 294 297 296 293 294 294
309 309 309 308 308 308 308 308 309 309 307 306 305 305 305 305 306 302 298 299 297 293 292 294 294 299 301 299 299 292 296 298 296 297 291 291 285 288 284 284 288 291 294 287 286 293 291 292 295 295 296 294 296 297
308 308 308 308 308 308 307 308 308 309 308 306 305 305 304 305 306 303 298 300 296 294 287 291 302 300 304 303 302 303 299 301 298 296 290 291 287 293 288 289 288 291 293 288 287 290 291 294 294 295 294 296 296 297
307 308 308 308 308 308 308 308 308 308 308 306 305 305 304 305 305 302 300 300 300 293 287 288 294 298 301 303 303 302 300 297 295 290 289 290 293 292 292 290 289 292 289 286 284 290 290 291 294 295 295 295 297 296
305 306 307 308 308 308 308 308 308 308 308 306 306 305 304 305 303 297 292 299 300 298 289 285 296 295 301 303 302 300 299 298 297 294 292 293 299 294 288 285 294 295 294 292 290 294 293 294 295 296 295 296 295 295
305 306 307 307 308 307 307 308 308 308 308 306 306 304 304 304 299 294 293 297 300 300 290 286 288 298 301 301 300 298 300 297 296 294 291 290 292 294 290 285 292 293 292 292 294 294 291 293 292 296 297 296 296 295
305 306 306 307 307 307 307 308 308 308 307 305 304 303 304 302 298 295 300 301 301 296 293 286 287 292 302 295 295 301 295 295 294 293 293 292 295 293 287 292 294 292 291 292 293 294 293 295 298 298 298 295 293 292
305 306 306 306 307 307 307 307 308 307 305 304 304 301 298 295 292 296 302 302 300 294 287 288 286 286 301 297 299 299 298 290 295 290 292 293 291 288 290 291 291 290 290 291 293 294 295 295 296 297 295 293 291 291
305 305 306 306 306 306 306 307 308 305 304 303 299 294 290 295 301 303 296 291 291 291 291 286 292 287 295 295 294 294 296 292 287 290 295 290 290 293 294 292 291 292 293 294 291 290 292 294 296 296 295 294 293 291
304 305 305 306 307 307 307 307 305 304 302 297 293 292 298 302 297 294 288 287 287 285 288 289 289 288 296 291 290 294 290 293 288 288 289 287 287 290 293 294 293 294 294 293 294 295 296 296 296 295 296 294 293 291
304 305 305 306 306 306 307 306 304 299 296 297 297 299 298 294 291 288 287 289 287 286 292 290 293 293 296 298 291 292 288 291 285 293 289 286 290 292 293 293 293 294 293 293 294 294 295 297 297 297 296 294 294 292
304 305 305 305 306 306 307 304 303 302 301 299 295 291 290 290 284 282 281 286 288 293 295 294 292 295 295 296 294 292 289 287 295 290 286 288 291 293 293 293 293 294 294 293 293 294 295 296 297 298 295 295 294 292
304 304 305 305 305 306 305 304 303 301 298 291 289 284 286 284 286 287 287 291 295 296 296 295 294 293 294 292 293 289 292 293 287 286 284 288 290 291 292 292 292 292 293 293 292 293 294 295 295 296 297 296 295 291
303 304 305 305 305 306 304 303 303 300 296 290 290 284 286 291 293 295 295 295 297 298 295 295 295 295 292 290 291 289 287 284 285 283 288 290 290 291 290 290 291 292 293 292 292 292 293 293 293 294 296 297 295 293
303 304 303 305 305 304 302 301 298 297 293 290 290 288 292 291 291 293 295 295 299 295 296 296 293 290 288 288 287 286 283 283 285 290 291 290 289 290 290 291 292 293 293 293 293 293 293 292 292 293 295 296 295 293
303 300 304 304 303 302 300 294 294 291 290 289 288 293 292 294 294 295 295 295 298 295 290 293 289 288 291 287 285 286 284 288 290 290 290 291 291 290 291 291 292 293 294 293 293 294 292 293 293 292 291 294 295 294
301 304 304 302 299 297 295 295 293 290 288 290 288 292 294 295 294 295 297 298 297 295 295 292 296 290 286 285 285 289 291 292 292 290 290 291 292 293 292 292 293 293 293 292 292 292 292 292 291 291 292 294 295 293
302 301 301 300 298 295 291 292 293 288 289 292 293 294 295 295 298 298 298 299 300 300 296 293 290 289 291 293 291 291 292 292 290 289 290 292 293 293 293 294 295 293 291 291 291 290 291 293 292 291 292 294 294 293
301 300 300 301 302 295 291 291 296 291 289 291 294 293 294 294 297 298 297 297 296 294 291 290 291 293 292 293 294 293 293 292 290 288 290 292 294 295 293 293 292 293 291 290 290 290 291 292 292 292 292 292 293 292
298 299 300 300 298 296 294 292 291 293 295 292 294 294 293 296 294 294 295 297 294 292 290 293 293 294 296 296 296 295 294 293 291 291 290 289 293 293 292 292 292 291 290 290 290 291 291 291 292 293 291 291 293 295
296 299 296 297 294 294 293 297 294 297 294 294 293 294 292 291 292 293 297 292 292 294 295 294 294 294 294 295 295 295 295 295 295 292 289 291 290 291 290 290 290 289 290 289 290 289 290 292 292 293 291 291 292 294
299 298 296 295 291 290 289 298 292 293 290 291 293 290 291 292 295 298 291 294 296 298 296 296 297 297 295 296 296 296 296 295 292 292 292 292 292 292 291 290 290 289 288 288 290 290 290 290 291 292 292 291 291 291
300 294 290 289 290 288 294 291 293 293 293 292 290 289 291 293 296 292 289 292 295 297 295 296 294 293 294 295 293 293 294 294 292 292 292 291 291 291 291 290 290 290 290 290 289 289 290 290 290 291 291 290 289 289
289 288 289 286 292 290 289 289 290 290 289 291 290 290 292 295 290 289 289 292 294 295 295 295 294 292 291 292 293 292 295 294 291 289 291 291 291 291 290 290 289 289 290 288 288 288 288 289 290 290 290 289 289 289
284 288 286 288 290 289 290 287 288 289 291 290 291 294 294 291 287 287 292 295 294 296 296 296 294 292 292 292 291 291 292 295 293 290 290 290 290 289 287 286 285 286 290 289 288 287 287 288 288 289 289 288 287 288
284 285 291 295 294 293 292 293 293 291 289 289 291 290 290 285 286 291 296 298 298 298 299 299 298 295 293 293 293 293 294 294 292 291 291 290 290 290 288 286 285 286 290 290 289 288 287 288 287 288 288 288 287 288
290 291 288 290 292 294 290 290 290 289 291 294 293 288 287 287 287 294 297 300 301 300 299 299 299 296 294 293 293 293 292 292 293 292 291 290 291 290 290 290 290 287 289 289 289 288 287 287 286 287 287 286 285 286
290 293 292 289 290 291 291 291 291 294 296 295 291 289 288 291 295 296 297 299 299 298 295 293 293 294 294 294 294 294 294 293 290 288 287 286 286 286 289 289 289 289 290 287 282 285 285 285 285 285 286 285 284 284
291 295 290 289 288 289 292 295 293 295 295 293 293 292 292 294 297 299 297 297 295 295 294 294 293 292 291 290 289 290 291 290 292 290 287 286 286 287 287 287 287 287 288 288 288 287 284 285 283 283 283 282 281 280
294 293 290 291 290 292 294 296 296 295 294 293 293 290 289 291 292 294 293 295 296 295 294 292 292 293 292 291 290 288 285 288 287 287 287 288 286 286 286 286 286 287 287 287 287 285 283 282 281 279 279 279 279 278
292 290 289 287 287 292 294 292 292 290 291 289 288 291 290 289 286 290 293 293 294 293 290 292 291 290 291 289 287 286 284 284 283 282 283 283 283 283 284 284 284 285 285 286 285 283 282 280 279 278 278 277 277 278
291 291 290 289 287 288 290 289 288 286 287 287 288 288 288 286 283 287 293 293 292 293 291 291 291 290 289 287 285 283 282 281 280 279 279 279 278 280 281 281 282 284 284 284 283 282 280 278 277 275 275 276 276 276
Wind_Speed
12 12 12 13 12 12 12 14 15 15 18 16 12 11 11 10 10 4 2 2 2 3 9 9 7 7 6 8 5 7 7 6 4 2 2 3 2 4 4 5 1 4 3 3 4 4 3 11 6 7 6 7 12 13
13 12 11 11 11 12 12 12 13 14 18 16 13 11 10 9 11 7 1 1 1 5 6 11 18 19 17 17 5 4 5 3 3 3 4 4 3 3 3 3 6 3 4 3 3 5 5 5 7 4 7 12 12 17
13 12 11 10 10 10 11 11 11 13 18 17 14 11 9 8 9 10 2 0 2 3 8 8 8 14 11 13 13 3 2 3 3 2 2 3 3 2 3 3 4 3 10 4 6 4 9 15 7 12 13 17 19 19
13 12 11 11 10 10 11 10 10 11 17 17 14 12 9 8 7 12 3 3 1 3 4 6 8 5 4 9 11 5 4 4 3 3 1 3 2 3 3 5 3 3 5 6 7 8 17 5 14 16 19 20 22 22
14 13 12 11 11 10 11 10 9 11 16 17 15 12 10 7 9 4 2 3 3 2 3 6 14 13 15 10 8 8 6 2 1 3 2 3 3 4 4 1 2 2 1 2 6 14 10 16 16 22 23 23 24 20
16 13 13 12 11 10 10 10 9 10 17 18 15 11 10 5 12 2 2 2 3 2 2 5 5 8 5 12 8 7 4 2 1 1 3 3 2 2 2 3 2 4 4 5 6 11 15 17 20 20 19 24 20 25
15 13 13 12 11 9 11 10 9 10 17 16 12 8 7 11 5 2 1 3 1 3 2 5 5 5 8 10 5 3 4 2 1 1 2 3 1 2 1 3 7 7 8 11 10 9 10 12 15 21 17 20 23 21
14 13 12 11 11 9 10 11 9 10 16 14 8 5 5 12 3 3 3 7 3 2 2 3 5 4 6 4 4 2 3 2 2 2 3 3 2 1 3 3 8 10 12 9 10 12 14 18 20 18 18 18 25 22
12 13 12 12 10 9 9 9 7 15 17 13 11 16 4 1 2 2 1 8 0 1 2 3 3 3 5 7 3 2 4 3 3 3 3 1 2 3 3 4 8 11 9 12 15 16 15 17 21 21 17 20 24 23
12 13 13 13 10 9 10 8 13 20 16 22 4 2 3 4 4 9 3 3 2 2 3 4 3 5 3 2 6 5 4 4 3 4 1 1 0 5 3 4 4 8 11 12 14 15 18 20 20 20 19 18 22 23
13 13 13 12 11 10 10 10 23 22 18 2 3 2 2 1 2 2 3 3 3 4 4 5 7 7 5 3 0 1 3 4 2 2 2 3 1 2 3 6 7 7 10 12 12 14 15 17 19 19 21 22 20 25
13 13 13 12 12 11 9 23 26 9 4 5 4 3 2 3 3 4 4 4 5 4 5 4 6 7 5 1 2 2 2 1 3 5 3 2 1 5 7 7 8 8 12 14 14 16 17 18 19 18 18 22 20 23
14 14 13 13 13 12 13 27 19 21 12 3 2 3 3 4 5 5 5 4 4 5 5 4 2 4 1 3 1 2 2 3 7 3 2 3 3 6 5 6 9 8 12 13 15 15 17 19 18 17 17 21 18 22
15 15 14 14 13 11 22 26 25 14 4 3 4 5 5 5 6 5 6 3 3 6 6 3 1 1 1 2 2 3 3 2 2 2 4 3 6 6 7 8 9 11 11 13 16 15 17 18 17 18 16 20 17 22
14 14 12 11 12 12 28 28 19 4 2 3 4 5 7 6 2 3 5 5 9 8 1 4 2 3 2 2 1 3 3 1 3 2 1 4 6 6 7 9 10 9 10 9 12 13 16 17 17 17 18 17 17 20
13 8 6 12 12 25 29 18 5 1 1 1 4 4 4 2 4 4 6 7 9 2 2 1 3 2 2 1 1 2 3 2 1 2 4 5 6 6 7 8 9 8 9 8 10 11 14 15 16 16 16 17 15 21
11 3 11 15 30 28 21 6 3 4 4 4 4 5 5 4 3 6 6 5 3 2 2 4 3 3 4 2 2 1 1 2 1 5 5 4 4 4 7 7 8 8 8 10 11 11 12 14 15 15 18 18 12 17
3 7 27 32 21 12 3 1 3 5 5 6 4 3 6 5 4 6 2 1 1 1 3 5 3 3 3 3 3 4 3 2 5 4 4 2 2 3 3 5 7 8 9 10 10 11 12 13 14 12 15 17 12 16
11 20 33 28 11 6 4 3 2 3 6 2 5 5 4 5 4 6 1 2 1 2 3 2 1 2 2 3 6 4 4 5 4 3 1 4 6 3 4 4 2 5 5 7 8 7 8 10 10 11 10 12 10 10
29 29 24 17 6 3 4 3 4 3 3 5 5 6 5 4 4 4 3 3 3 2 2 1 3 4 6 4 6 7 6 5 3 2 4 4 5 6 3 1 2 3 2 2 2 3 7 8 8 10 11 10 11 9
19 12 12 5 1 1 2 4 4 4 3 3 4 4 2 3 7 5 3 3 3 3 2 6 7 5 6 7 6 6 6 4 4 3 2 4 3 5 4 5 6 4 4 6 7 6 7 8 9 7 11 10 10 9
6 10 3 1 1 1 2 3 2 2 1 2 4 4 4 6 6 5 3 1 1 2 4 6 6 6 4 6 6 6 5 5 5 1 1 1 4 4 5 6 5 5 5 7 7 8 7 5 6 8 9 11 10 10
11 3 2 3 2 2 3 3 2 3 4 4 3 3 4 3 2 5 3 3 3 3 7 7 5 7 9 7 5 4 5 2 3 4 3 4 4 4 6 7 5 5 5 5 6 6 7 8 7 6 8 11 10 10
5 4 4 5 5 4 4 5 4 3 3 3 6 4 3 2 3 2 3 3 3 5 8 6 8 5 5 6 5 4 2 4 4 4 5 4 4 4 6 7 6 4 5 4 5 6 7 8 10 8 7 10 11 12
4 4 3 4 5 5 5 5 4 3 3 7 7 3 2 3 3 3 3 3 4 6 7 6 7 6 5 4 5 4 4 1 5 4 4 5 4 4 5 7 7 5 5 6 7 8 8 8 9 10 7 11 12 13
3 5 8 7 4 4 5 5 6 5 4 4 3 4 2 2 2 1 3 4 4 7 5 4 5 5 5 7 6 4 2 4 5 5 5 5 5 4 5 6 5 4 5 5 6 9 10 9 10 13 11 13 12 12
3 3 4 5 3 3 2 2 3 2 4 4 4 4 3 3 2 3 2 3 4 5 4 3 3 7 7 9 7 5 5 5 5 6 7 6 4 4 5 4 4 3 4 6 7 8 9 10 10 11 10 10 12 11
2 3 4 2 2 1 2 3 2 3 3 2 5 3 4 3 3 1 2 3 3 4 5 7 6 9 9 7 5 5 6 4 2 5 7 6 5 5 5 4 4 8 6 7 7 8 9 9 10 11 11 11 11 12
2 2 3 4 4 2 1 3 1 1 4 1 4 3 4 2 1 1 2 1 4 5 7 8 6 7 7 7 7 6 5 2 5 7 8 5 5 5 5 5 5 5 5 6 5 11 12 7 11 11 12 10 10 10
4 5 3 3 3 1 1 2 4 6 6 6 6 8 8 4 2 3 3 4 4 4 7 6 4 5 7 7 7 7 7 7 7 7 6 5 3 5 5 4 5 5 5 5 6 9 10 8 9 8 10 9 9 9
5 3 3 2 3 3 7 7 7 10 9 11 9 10 9 6 6 10 11 9 2 5 5 4 3 5 6 6 7 9 7 6 9 12 8 7 7 6 5 5 5 4 5 5 7 9 8 8 8 9 11 13 14 13
3 3 3 3 2 3 6 5 4 3 7 9 8 7 6 4 5 5 8 10 8 4 1 4 10 9 11 11 11 12 15 10 8 8 11 7 7 7 6 7 6 6 6 5 7 7 8 8 8 9 10 13 13 13
3 4 4 4 2 3 3 4 2 3 3 3 3 3 4 4 4 3 5 8 7 5 9 11 11 11 14 14 13 10 11 9 10 7 8 8 7 8 7 6 7 7 8 7 8 7 9 9 7 8 8 9 10 11
Wind_Direction
281 279 278 278 277 276 271 262 252 233 210 211 224 252 271 289 192 179 221 179 251 250 282 262 289 288 273 280 274 333 324 9 319 291 323 330 342 333 340 327 26 165 209 210 232 236 286 5 19 359 269 305 322 326
277 275 274 279 281 276 272 268 261 236 208 209 216 243 261 288 196 189 229 200 266 236 271 305 280 261 244 241 288 285 301 314 320 357 7 333 341 331 348 292 342 90 168 212 229 256 87 13 292 335 328 326 319 308
277 277 273 271 278 279 277 270 263 242 209 203 209 233 257 274 209 190 186 227 281 265 274 255 236 261 212 220 219 253 45 339 1 297 313 265 286 350 296 293 6 330 33 55 351 339 1 333 346 333 329 318 306 305
282 276 272 271 277 278 282 274 262 245 208 199 204 220 247 268 240 186 198 169 178 278 280 286 1 318 303 208 207 209 271 303 296 306 262 277 257 278 267 256 342 9 358 338 266 277 338 282 321 315 310 305 304 304
280 279 274 268 268 274 276 273 263 236 203 198 201 219 240 262 191 183 254 223 186 255 294 291 305 263 276 195 198 195 205 120 328 313 295 261 285 5 327 302 48 322 2 280 276 310 289 291 302 306 302 307 305 322
277 274 271 265 265 269 276 273 260 230 201 196 201 216 235 267 151 144 267 154 179 191 287 290 308 282 263 165 192 169 161 160 244 218 275 271 79 86 328 317 92 53 58 5 291 303 288 287 291 297 308 306 329 316
266 264 264 264 260 265 279 267 254 225 196 190 195 214 240 169 160 203 265 121 22 155 255 282 278 269 208 179 172 154 142 116 74 51 269 275 278 87 237 251 357 13 2 320 299 325 297 294 294 299 296 311 322 302
264 261 263 259 252 257 268 261 247 205 178 170 175 229 225 147 43 299 231 197 173 171 258 270 275 265 191 186 150 113 124 121 162 245 244 254 132 126 241 325 348 351 322 298 314 300 280 287 299 313 306 340 323 315
263 261 257 257 245 253 259 248 233 166 152 145 130 108 83 134 205 227 185 137 131 268 255 247 269 290 281 215 114 154 175 181 111 228 232 100 216 214 14 8 340 335 320 305 311 309 311 319 314 321 325 334 325 323
261 263 257 253 243 245 248 232 166 144 137 127 113 163 199 196 198 136 141 150 185 208 233 251 269 268 278 246 196 171 174 176 188 208 49 223 127 123 104 69 4 328 321 327 328 327 323 319 324 333 328 334 330 326
256 256 257 256 241 235 228 190 144 140 131 146 163 200 68 239 159 216 190 206 170 230 216 232 216 232 295 266 303 88 183 174 248 154 246 203 152 105 78 48 357 343 337 330 317 307 316 323 324 335 332 333 331 330
258 251 247 245 241 232 223 159 150 133 146 131 114 93 142 202 203 233 213 185 203 236 193 228 206 191 246 343 33 316 222 250 250 144 235 152 112 72 44 21 347 355 341 335 333 323 328 332 333 333 338 338 338 330
254 251 248 238 229 223 192 159 146 121 103 95 159 159 207 163 218 217 212 200 213 222 194 192 229 199 128 91 197 236 235 242 122 204 120 72 67 39 37 2 340 353 342 339 339 333 331 332 337 340 340 341 341 336
252 254 248 230 219 209 167 150 143 124 104 163 166 192 219 189 232 201 226 307 294 244 242 178 83 114 268 158 198 254 227 203 262 25 69 95 60 24 339 358 344 345 340 346 344 337 341 339 337 339 346 345 344 343
251 247 233 217 199 189 154 148 140 80 157 171 198 218 216 244 265 259 233 250 257 273 215 103 153 149 14 31 317 355 279 110 50 75 62 85 57 28 352 343 343 341 342 343 343 344 348 341 340 337 344 338 356 346
242 230 207 172 188 150 138 126 78 59 142 223 223 244 263 293 258 252 257 237 254 266 292 106 170 170 101 305 295 4 354 45 109 154 70 61 36 359 349 345 345 335 337 338 334 341 350 349 341 337 336 340 354 354
192 216 172 159 137 130 113 86 130 192 203 217 225 221 263 278 262 268 208 249 197 308 243 55 274 147 135 169 167 107 213 184 82 82 80 61 7 344 347 348 348 331 350 355 342 357 352 345 345 347 344 342 356 1
195 150 136 129 122 90 52 81 173 181 220 225 245 233 209 256 281 273 214 339 337 288 338 194 239 159 160 196 155 163 180 128 91 88 85 48 346 359 2 352 356 359 19 360 348 358 348 352 353 350 340 341 351 2
148 142 139 137 121 112 131 167 216 216 224 234 224 262 211 242 263 279 107 79 327 296 279 262 129 124 110 46 118 116 86 83 88 92 192 204 233 198 158 233 44 62 45 7 9 355 341 348 355 347 345 343 351 4
143 139 135 128 103 119 127 155 192 246 220 215 219 213 218 217 256 261 220 213 219 244 268 353 65 34 97 77 79 90 90 85 108 204 232 221 217 177 203 113 78 107 61 340 347 337 3 5 6 353 352 348 350 13
114 131 111 64 81 16 181 159 184 227 232 194 196 187 222 208 239 233 204 220 216 246 93 108 95 79 70 84 85 86 94 126 171 221 355 26 12 71 70 53 39 18 21 7 4 5 24 22 3 2 354 353 349 354
107 96 104 253 83 210 213 232 223 263 195 248 157 187 209 216 222 207 159 153 232 87 91 113 111 108 108 85 91 99 144 171 247 183 203 283 36 52 70 60 34 12 32 16 4 6 360 25 15 9 3 355 354 356
100 73 98 170 176 203 249 164 208 221 207 187 162 184 236 180 69 134 186 160 119 63 105 110 118 109 102 101 112 157 227 227 78 30 35 99 74 49 84 72 47 19 25 18 3 5 356 359 3 29 18 7 3 1
140 121 161 176 189 198 179 181 213 210 218 197 168 227 145 132 184 195 164 114 119 122 115 122 111 117 130 163 151 178 220 115 104 50 10 30 75 59 84 79 55 24 22 3 14 7 357 11 359 11 38 22 17 11
129 162 181 185 209 205 182 179 203 200 194 200 194 133 152 123 142 207 172 131 153 128 137 155 145 168 176 171 97 71 335 67 105 86 52 32 14 57 69 84 65 15 25 9 22 12 1 12 8 6 36 33 23 16
128 169 185 200 181 183 190 165 187 211 198 186 156 94 80 114 179 182 59 142 156 137 152 170 176 187 168 132 123 114 36 29 92 88 62 53 32 41 59 57 40 358 5 15 33 18 4 10 13 10 16 31 21 23
149 190 194 221 242 189 156 180 192 184 209 180 151 151 133 144 115 55 44 323 105 121 146 218 228 117 113 104 96 88 73 45 50 91 87 76 55 52 75 74 41 343 343 31 41 25 9 8 13 11 16 29 15 16
252 183 160 203 146 191 121 85 158 210 217 135 132 140 116 47 93 11 63 40 94 101 79 61 55 90 100 101 106 97 87 84 47 112 114 100 77 51 37 51 33 49 65 40 45 37 22 21 17 10 15 30 15 4
223 162 105 89 74 55 184 216 242 19 335 211 86 92 94 85 250 65 82 30 72 98 102 94 85 89 86 77 70 68 48 24 205 191 176 99 74 56 40 26 15 25 20 117 94 55 30 38 27 19 16 31 18 3
158 141 117 140 145 145 131 77 89 69 57 84 93 103 105 110 120 97 105 89 84 95 104 113 130 133 125 114 97 80 57 35 44 64 85 78 66 55 36 19 16 12 1 13 34 53 35 27 24 17 18 19 16 6
137 118 109 88 62 76 84 75 50 83 86 94 101 102 100 94 65 38 20 351 115 122 129 138 172 149 134 127 139 127 106 81 56 41 30 72 55 30 5 23 13 1 349 21 53 58 39 35 31 25 16 14 10 8
143 127 117 103 76 30 60 46 50 62 84 98 104 109 106 62 58 36 4 355 5 35 343 103 79 71 86 83 70 70 74 72 56 44 38 41 33 4 16 25 1 348 346 51 72 78 60 50 36 34 23 12 5 358
84 89 94 101 90 96 75 83 74 75 68 73 64 54 48 53 76 17 4 357 349 19 75 78 87 89 90 90 93 88 83 88 91 82 77 67 45 27 31 11 349 6 16 28 48 47 70 57 43 40 31 11 358 356